VBD205 SCTE-SAZS

Flight info

Callsign VBD205
Flight time 0h 37m
Altitude 19000
Route BAR
Aircraft TBM9/L-SDFGRWY/S

Departure

Time 2026-04-20 14:48
Airport El Tepual International Airport (SCTE)

Arrival

Time 2026-04-20 15:25
Airport Teniente Luis Candelaria International Airport (SAZS)
Time Latitude Longitude Altitude Speed Heading
2026-04-20 14:20 -41.43481 -73.09701 277 ft 0 kts 252°
2026-04-20 14:43 -41.43481 -73.09702 277 ft 2 kts 261°
2026-04-20 14:43 -41.43461 -73.09651 277 ft 12 kts 80°
2026-04-20 14:44 -41.43394 -73.09600 276 ft 14 kts 359°
2026-04-20 14:44 -41.43288 -73.09594 275 ft 17 kts 359°
2026-04-20 14:44 -41.43190 -73.09590 273 ft 12 kts
2026-04-20 14:44 -41.43094 -73.09593 272 ft 15 kts 355°
2026-04-20 14:45 -41.42980 -73.09585 270 ft 18 kts
2026-04-20 14:45 -41.42850 -73.09579 269 ft 20 kts
2026-04-20 14:45 -41.42722 -73.09558 267 ft 17 kts 46°
2026-04-20 14:45 -41.42710 -73.09475 267 ft 0 kts 99°
2026-04-20 14:46 -41.42710 -73.09474 267 ft 1 kts 98°
2026-04-20 14:47 -41.42709 -73.09434 267 ft 6 kts 89°
2026-04-20 14:47 -41.42730 -73.09374 267 ft 8 kts 142°
2026-04-20 14:47 -41.42783 -73.09355 268 ft 8 kts 178°
2026-04-20 14:48 -41.43497 -73.09403 341 ft 103 kts 184°
2026-04-20 14:48 -41.44229 -73.09166 686 ft 122 kts 136°
2026-04-20 14:48 -41.44408 -73.08031 1038 ft 142 kts 71°
2026-04-20 14:48 -41.43798 -73.06901 1424 ft 159 kts 52°
2026-04-20 14:49 -41.43295 -73.05525 1829 ft 173 kts 76°
2026-04-20 14:49 -41.43036 -73.03907 2231 ft 184 kts 79°
2026-04-20 14:49 -41.42779 -73.02193 2621 ft 193 kts 79°
2026-04-20 14:49 -41.42501 -73.00418 3006 ft 198 kts 79°
2026-04-20 14:50 -41.42218 -72.98610 3388 ft 201 kts 78°
2026-04-20 14:50 -41.41931 -72.96780 3777 ft 202 kts 79°
2026-04-20 14:50 -41.41643 -72.94960 4265 ft 200 kts 78°
2026-04-20 14:50 -41.41359 -72.93161 4766 ft 197 kts 79°
2026-04-20 14:51 -41.41078 -72.91378 5259 ft 196 kts 78°
2026-04-20 14:51 -41.40796 -72.89605 5753 ft 195 kts 79°
2026-04-20 14:51 -41.40518 -72.87842 6249 ft 194 kts 79°
2026-04-20 14:51 -41.40239 -72.86078 6739 ft 194 kts 78°
2026-04-20 14:52 -41.39961 -72.84320 7240 ft 194 kts 78°
2026-04-20 14:52 -41.39682 -72.82556 7734 ft 195 kts 78°
2026-04-20 14:52 -41.39401 -72.80791 8230 ft 195 kts 78°
2026-04-20 14:52 -41.39121 -72.79023 8726 ft 195 kts 78°
2026-04-20 14:53 -41.38839 -72.77255 9221 ft 195 kts 78°
2026-04-20 14:53 -41.38557 -72.75486 9717 ft 195 kts 78°
2026-04-20 14:53 -41.38275 -72.73715 10210 ft 196 kts 78°
2026-04-20 14:53 -41.37993 -72.71944 10709 ft 196 kts 78°
2026-04-20 14:54 -41.37710 -72.70170 11204 ft 196 kts 78°
2026-04-20 14:54 -41.37426 -72.68395 11702 ft 196 kts 78°
2026-04-20 14:54 -41.37143 -72.66630 12203 ft 197 kts 78°
2026-04-20 14:54 -41.36857 -72.64833 12649 ft 200 kts 78°
2026-04-20 14:55 -41.36566 -72.63022 13120 ft 201 kts 78°
2026-04-20 14:55 -41.36273 -72.61195 13565 ft 203 kts 78°
2026-04-20 14:55 -41.35978 -72.59353 14024 ft 204 kts 78°
2026-04-20 14:55 -41.35680 -72.57500 14472 ft 205 kts 78°
2026-04-20 14:56 -41.35380 -72.55633 14914 ft 207 kts 78°
2026-04-20 14:56 -41.35077 -72.53755 15366 ft 208 kts 78°
2026-04-20 14:56 -41.34773 -72.51873 15807 ft 209 kts 78°
2026-04-20 14:56 -41.34467 -72.49978 16239 ft 211 kts 78°
2026-04-20 14:57 -41.34162 -72.48088 16657 ft 212 kts 78°
2026-04-20 14:57 -41.33847 -72.46137 17093 ft 214 kts 78°
2026-04-20 14:57 -41.33536 -72.44220 17490 ft 216 kts 78°
2026-04-20 14:57 -41.33219 -72.42264 17912 ft 217 kts 78°
2026-04-20 14:58 -41.32902 -72.40306 18351 ft 217 kts 78°
2026-04-20 14:58 -41.32582 -72.38345 18763 ft 218 kts 78°
2026-04-20 14:58 -41.32257 -72.36344 18997 ft 229 kts 78°
2026-04-20 14:58 -41.31913 -72.34195 19005 ft 245 kts 78°
2026-04-20 14:59 -41.31545 -72.31921 19011 ft 257 kts 78°
2026-04-20 14:59 -41.31154 -72.29522 19012 ft 266 kts 78°
2026-04-20 14:59 -41.30764 -72.27127 19011 ft 271 kts 78°
2026-04-20 14:59 -41.30361 -72.24662 19010 ft 275 kts 78°
2026-04-20 15:00 -41.30056 -72.22148 19013 ft 277 kts 89°
2026-04-20 15:00 -41.30221 -72.19592 19011 ft 278 kts 98°
2026-04-20 15:00 -41.30451 -72.17032 19009 ft 279 kts 97°
2026-04-20 15:00 -41.30668 -72.14465 19010 ft 280 kts 97°
2026-04-20 15:01 -41.30889 -72.11889 19008 ft 281 kts 97°
2026-04-20 15:01 -41.31115 -72.09305 19007 ft 282 kts 97°
2026-04-20 15:01 -41.31341 -72.06711 19005 ft 283 kts 97°
2026-04-20 15:01 -41.31566 -72.04115 19003 ft 282 kts 97°
2026-04-20 15:02 -41.31787 -72.01521 19002 ft 282 kts 97°
2026-04-20 15:02 -41.32009 -71.98926 18999 ft 282 kts 97°
2026-04-20 15:02 -41.32232 -71.96337 18998 ft 282 kts 97°
2026-04-20 15:02 -41.32452 -71.93743 18996 ft 282 kts 97°
2026-04-20 15:03 -41.32672 -71.91150 18993 ft 283 kts 97°
2026-04-20 15:03 -41.32893 -71.88552 18993 ft 283 kts 97°
2026-04-20 15:03 -41.33114 -71.85951 18992 ft 283 kts 97°
2026-04-20 15:03 -41.33333 -71.83353 18991 ft 283 kts 97°
2026-04-20 15:04 -41.33551 -71.80756 18991 ft 282 kts 97°
2026-04-20 15:04 -41.33769 -71.78148 18899 ft 286 kts 97°
2026-04-20 15:04 -41.33997 -71.75488 18629 ft 293 kts 97°
2026-04-20 15:04 -41.34228 -71.72772 18306 ft 298 kts 97°
2026-04-20 15:05 -41.34457 -71.70017 17969 ft 301 kts 97°
2026-04-20 15:05 -41.34687 -71.67240 17628 ft 302 kts 97°
2026-04-20 15:05 -41.34916 -71.64457 17288 ft 303 kts 97°
2026-04-20 15:05 -41.35145 -71.61676 16948 ft 302 kts 97°
2026-04-20 15:06 -41.35372 -71.58935 16610 ft 301 kts 97°
2026-04-20 15:06 -41.35600 -71.56129 16271 ft 300 kts 97°
2026-04-20 15:06 -41.35821 -71.53413 15942 ft 299 kts 97°
2026-04-20 15:06 -41.36045 -71.50666 15608 ft 298 kts 97°
2026-04-20 15:07 -41.36268 -71.47929 15275 ft 297 kts 97°
2026-04-20 15:07 -41.36489 -71.45197 14942 ft 297 kts 97°
2026-04-20 15:07 -41.36710 -71.42467 14610 ft 296 kts 97°
2026-04-20 15:07 -41.36930 -71.39745 14279 ft 295 kts 97°
2026-04-20 15:08 -41.37146 -71.37033 13950 ft 294 kts 97°
2026-04-20 15:08 -41.37362 -71.34330 13620 ft 293 kts 97°
2026-04-20 15:08 -41.37579 -71.31637 13294 ft 292 kts 97°
2026-04-20 15:08 -41.37792 -71.28956 12968 ft 291 kts 97°
2026-04-20 15:09 -41.38003 -71.26283 12643 ft 290 kts 97°
2026-04-20 15:09 -41.38213 -71.23620 12320 ft 289 kts 97°
2026-04-20 15:09 -41.38423 -71.20990 12000 ft 276 kts 97°
2026-04-20 15:09 -41.38606 -71.18532 11695 ft 258 kts 96°
2026-04-20 15:10 -41.38779 -71.16203 11433 ft 249 kts 97°
2026-04-20 15:10 -41.38960 -71.13938 11161 ft 244 kts 97°
2026-04-20 15:10 -41.39139 -71.11711 10894 ft 240 kts 97°
2026-04-20 15:10 -41.39311 -71.09510 10631 ft 238 kts 97°
2026-04-20 15:11 -41.39479 -71.07329 10369 ft 236 kts 97°
2026-04-20 15:11 -41.39647 -71.05162 10107 ft 235 kts 97°
2026-04-20 15:11 -41.39814 -71.03005 9846 ft 233 kts 97°
2026-04-20 15:11 -41.39847 -71.00877 9572 ft 220 kts 82°
2026-04-20 15:12 -41.39440 -70.99071 9346 ft 190 kts 66°
2026-04-20 15:12 -41.38779 -70.97651 9234 ft 174 kts 51°
2026-04-20 15:12 -41.37943 -70.96546 9099 ft 167 kts 41°
2026-04-20 15:12 -41.37089 -70.95519 8938 ft 165 kts 43°
2026-04-20 15:13 -41.36247 -70.94494 8765 ft 164 kts 43°
2026-04-20 15:13 -41.35407 -70.93474 8587 ft 163 kts 43°
2026-04-20 15:13 -41.34567 -70.92458 8407 ft 163 kts 43°
2026-04-20 15:13 -41.33728 -70.91442 8224 ft 163 kts 43°
2026-04-20 15:14 -41.32888 -70.90426 7991 ft 165 kts 43°
2026-04-20 15:14 -41.32013 -70.89365 7604 ft 173 kts 43°
2026-04-20 15:14 -41.31132 -70.88299 7381 ft 168 kts 43°
2026-04-20 15:14 -41.30311 -70.87308 7235 ft 150 kts 42°
2026-04-20 15:15 -41.29587 -70.86437 7132 ft 131 kts 42°
2026-04-20 15:15 -41.28958 -70.85681 7038 ft 114 kts 42°
2026-04-20 15:15 -41.28394 -70.85008 6946 ft 105 kts 42°
2026-04-20 15:15 -41.27871 -70.84378 6854 ft 98 kts 41°
2026-04-20 15:16 -41.27330 -70.83769 6787 ft 111 kts 32°
2026-04-20 15:16 -41.26538 -70.83675 6684 ft 124 kts 339°
2026-04-20 15:16 -41.25931 -70.84474 6546 ft 129 kts 295°
2026-04-20 15:16 -41.25560 -70.85589 6398 ft 134 kts 295°
2026-04-20 15:17 -41.25163 -70.86723 6240 ft 137 kts 295°
2026-04-20 15:17 -41.24764 -70.87883 6076 ft 139 kts 295°
2026-04-20 15:17 -41.24363 -70.89051 5961 ft 137 kts 295°
2026-04-20 15:17 -41.23978 -70.90171 5950 ft 130 kts 294°
2026-04-20 15:18 -41.23619 -70.91251 5943 ft 124 kts 294°
2026-04-20 15:18 -41.23277 -70.92235 5940 ft 112 kts 295°
2026-04-20 15:18 -41.22971 -70.93124 5941 ft 103 kts 294°
2026-04-20 15:18 -41.22679 -70.93988 5941 ft 103 kts 294°
2026-04-20 15:19 -41.22373 -70.94845 5933 ft 104 kts 295°
2026-04-20 15:19 -41.22051 -70.95769 5799 ft 115 kts 295°
2026-04-20 15:19 -41.21709 -70.96771 5642 ft 123 kts 295°
2026-04-20 15:19 -41.21341 -70.97814 5471 ft 124 kts 295°
2026-04-20 15:20 -41.20993 -70.98823 5299 ft 117 kts 296°
2026-04-20 15:20 -41.20663 -70.99790 5147 ft 113 kts 295°
2026-04-20 15:20 -41.20333 -71.00730 4997 ft 111 kts 296°
2026-04-20 15:20 -41.20015 -71.01652 4852 ft 108 kts 296°
2026-04-20 15:21 -41.19709 -71.02538 4724 ft 99 kts 294°
2026-04-20 15:21 -41.19431 -71.03352 4596 ft 98 kts 295°
2026-04-20 15:21 -41.19143 -71.04177 4462 ft 99 kts 295°
2026-04-20 15:21 -41.18851 -71.05013 4324 ft 100 kts 295°
2026-04-20 15:22 -41.18560 -71.05847 4191 ft 99 kts 295°
2026-04-20 15:22 -41.18271 -71.06675 4059 ft 99 kts 294°
2026-04-20 15:22 -41.17984 -71.07512 3926 ft 100 kts 295°
2026-04-20 15:22 -41.17693 -71.08346 3794 ft 99 kts 295°
2026-04-20 15:23 -41.17498 -71.08904 3707 ft 99 kts 295°
2026-04-20 15:23 -41.17213 -71.09732 3574 ft 99 kts 295°
2026-04-20 15:23 -41.16926 -71.10554 3444 ft 98 kts 295°
2026-04-20 15:23 -41.16648 -71.11365 3315 ft 98 kts 294°
2026-04-20 15:24 -41.16362 -71.12183 3185 ft 98 kts 295°
2026-04-20 15:24 -41.16078 -71.13000 3056 ft 97 kts 295°
2026-04-20 15:24 -41.15793 -71.13816 2926 ft 97 kts 294°
2026-04-20 15:24 -41.15511 -71.14633 2800 ft 97 kts 295°
2026-04-20 15:25 -41.15244 -71.15399 2758 ft 83 kts 296°
2026-04-20 15:25 -41.15023 -71.16002 2757 ft 61 kts 288°
2026-04-20 15:25 -41.14914 -71.16317 2752 ft 17 kts 314°
2026-04-20 15:25 -41.14884 -71.16333 2752 ft 0 kts 37°
2026-04-20 15:26 -41.14868 -71.16320 2751 ft 8 kts 19°
2026-04-20 15:26 -41.14798 -71.16283 2750 ft 12 kts 36°
2026-04-20 15:26 -41.14716 -71.16224 2749 ft 14 kts 19°
2026-04-20 15:26 -41.14645 -71.16180 2749 ft 0 kts 25°